Fergus Falls, MN

9:43 AM CST on November 21, 2019 (GMT -0600)
Fergus Falls Municipal-Mickelson

Weather History for KFFM - September, 2019

Change the Weather History Date:

Sunday, September 29, 2019

  Actual Average Record
Temperature  
Mean Temperature 54 °F -  
Max Temperature 57 °F 62 °F 84 °F (2012)
Min Temperature 50 °F 40 °F 26 °F (1993)
Degree Days  
Heating Degree Days 12    
Growing Degree Days 4 (Base 50)    
Moisture  
Dew Point 46 °F    
Average Humidity 79    
Maximum Humidity 94    
Minimum Humidity 58    
Precipitation  
Precipitation 0.00 in - - ()
Sea Level Pressure  
Sea Level Pressure 30.02 in    
Wind  
Wind Speed 13 mph ()    
Max Wind Speed 23 mph    
Max Gust Speed 30 mph    
Visibility 9.4 miles    
Events Rain , Thunderstorm    
Averages and records for this station are not official NWS values.
T = Trace of Precipitation, MM = Missing Value Source: Averaged Metar Reports

Daily Weather History Graph

Daily Weather History Graph

Search for Another Location

Airport or City:

Astronomy

Sep. 29, 2019 Rise Set
Actual Time 7:20 AM CDT 7:08 PM CDT
Civil Twilight 6:50 AM CDT 7:38 PM CDT
Nautical Twilight 6:15 AM CDT 8:13 PM CDT
Astronomical Twilight 5:39 AM CDT 8:49 PM CDT
Moon 8:12 AM CDT (9/29) 8:07 PM CDT (9/29)
Length of Visible Light 12h 48m
Length of Day
11h 48m
New Moon, 1% of the Moon is Illuminated
Sep 29
New Moon
Oct 5
First Quarter
Oct 13
Full
Oct 21
Last Quarter
Oct 27
New

Hourly Weather History & Observations

Time (CDT) Temp. Dew Point Humidity Pressure Visibility Wind Dir Wind Speed Gust Speed Precip Events Conditions
12:16 AM 53.6 °F 39.2 °F 58% 30.22 in 10.0 mi ESE 6.9 mph - N/A   Overcast
12:35 AM 51.8 °F 39.2 °F 62% 30.23 in 10.0 mi ESE 10.4 mph - N/A   Overcast
12:55 AM 51.8 °F 39.2 °F 62% 30.22 in 10.0 mi East 8.1 mph - N/A   Overcast
12:59 AM 51.8 °F 39.2 °F 62% 30.22 in 10.0 mi ESE 8.1 mph - N/A   Overcast
1:16 AM 51.8 °F 39.2 °F 62% 30.21 in 10.0 mi ESE 9.2 mph - N/A Rain Light Rain
1:36 AM 51.8 °F 41.0 °F 67% 30.20 in 10.0 mi East 10.4 mph 16.1 mph N/A Rain Light Rain
1:55 AM 51.8 °F 39.2 °F 62% 30.20 in 10.0 mi East 10.4 mph 18.4 mph N/A   Overcast
1:56 AM 51.8 °F 39.2 °F 62% 30.20 in 10.0 mi East 9.2 mph 18.4 mph N/A   Overcast
2:15 AM 51.8 °F 39.2 °F 62% 30.20 in 10.0 mi East 9.2 mph - N/A   Overcast
2:37 AM 51.8 °F 39.2 °F 62% 30.18 in 10.0 mi East 10.4 mph 16.1 mph N/A   Overcast
2:55 AM 51.8 °F 39.2 °F 62% 30.18 in 10.0 mi East 11.5 mph 17.3 mph N/A   Overcast
3:15 AM 51.8 °F 39.2 °F 62% 30.17 in 10.0 mi East 11.5 mph 18.4 mph N/A   Overcast
3:16 AM 51.8 °F 39.2 °F 62% 30.17 in 10.0 mi East 9.2 mph 18.4 mph N/A   Overcast
3:35 AM 51.8 °F 39.2 °F 62% 30.16 in 10.0 mi East 11.5 mph 19.6 mph N/A   Overcast
3:59 AM 51.8 °F 39.2 °F 62% 30.15 in 10.0 mi East 10.4 mph 21.9 mph N/A   Overcast
4:17 AM 51.8 °F 39.2 °F 62% 30.15 in 10.0 mi East 12.7 mph 20.7 mph N/A   Overcast
4:36 AM 51.8 °F 39.2 °F 62% 30.15 in 10.0 mi East 10.4 mph 17.3 mph N/A   Overcast
4:55 AM 51.8 °F 39.2 °F 62% 30.14 in 10.0 mi ESE 12.7 mph 19.6 mph N/A   Overcast
4:56 AM 51.8 °F 39.2 °F 62% 30.14 in 10.0 mi ESE 12.7 mph 19.6 mph N/A   Overcast
5:15 AM 51.8 °F 39.2 °F 62% 30.15 in 10.0 mi ESE 13.8 mph 24.2 mph N/A   Overcast
5:19 AM 51.8 °F 39.2 °F 62% 30.15 in 10.0 mi ESE 15.0 mph 24.2 mph N/A   Overcast
5:37 AM 51.8 °F 39.2 °F 62% 30.14 in 10.0 mi ESE 12.7 mph 20.7 mph N/A   Overcast
5:55 AM 51.8 °F 39.2 °F 62% 30.14 in 10.0 mi ESE 15.0 mph - N/A   Overcast
6:15 AM 51.8 °F 39.2 °F 62% 30.14 in 10.0 mi ESE 12.7 mph 20.7 mph N/A   Overcast
6:16 AM 51.8 °F 39.2 °F 62% 30.14 in 10.0 mi ESE 13.8 mph 20.7 mph N/A   Overcast
6:35 AM 51.8 °F 39.2 °F 62% 30.14 in 10.0 mi ESE 13.8 mph 24.2 mph N/A   Overcast
6:39 AM 51.8 °F 39.2 °F 62% 30.13 in 10.0 mi ESE 13.8 mph 24.2 mph N/A   Overcast
6:57 AM 50.0 °F 41.0 °F 71% 30.13 in 10.0 mi ESE 17.3 mph 27.6 mph N/A   Overcast
7:15 AM 50.0 °F 41.0 °F 71% 30.13 in 10.0 mi ESE 13.8 mph 19.6 mph N/A   Overcast
7:16 AM 50.0 °F 41.0 °F 71% 30.13 in 10.0 mi ESE 13.8 mph 20.7 mph N/A   Overcast
7:35 AM 50.0 °F 41.0 °F 71% 30.12 in 10.0 mi ESE 15.0 mph 20.7 mph N/A   Overcast
7:36 AM 50.0 °F 41.0 °F 71% 30.12 in 10.0 mi ESE 12.7 mph 20.7 mph N/A   Overcast
7:59 AM 50.0 °F 41.0 °F 71% 30.11 in 10.0 mi ESE 12.7 mph 21.9 mph N/A   Overcast
8:16 AM 50.0 °F 41.0 °F 71% 30.10 in 10.0 mi ESE 20.7 mph 27.6 mph N/A   Overcast
8:36 AM 50.0 °F 42.8 °F 76% 30.08 in 10.0 mi ESE 18.4 mph 25.3 mph N/A   Overcast
8:55 AM 50.0 °F 42.8 °F 76% 30.08 in 10.0 mi ESE 16.1 mph 25.3 mph N/A   Overcast
9:15 AM 51.8 °F 42.8 °F 71% 30.09 in 10.0 mi ESE 15.0 mph 23.0 mph N/A   Overcast
9:19 AM 51.8 °F 42.8 °F 71% 30.09 in 10.0 mi ESE 13.8 mph 23.0 mph N/A   Overcast
9:37 AM 51.8 °F 42.8 °F 71% 30.09 in 10.0 mi ESE 17.3 mph 27.6 mph N/A   Overcast
9:56 AM 51.8 °F 44.6 °F 76% 30.08 in 10.0 mi ESE 18.4 mph 25.3 mph N/A   Overcast
10:15 AM 50.0 °F 44.6 °F 82% 30.07 in 10.0 mi ESE 12.7 mph 24.2 mph N/A   Overcast
10:16 AM 50.0 °F 44.6 °F 82% 30.07 in 10.0 mi ESE 13.8 mph 24.2 mph N/A   Overcast
10:35 AM 50.0 °F 44.6 °F 82% 30.06 in 7.0 mi ESE 16.1 mph 29.9 mph N/A   Overcast
10:36 AM 50.0 °F 44.6 °F 82% 30.06 in 7.0 mi ESE 15.0 mph 28.8 mph N/A   Overcast
10:59 AM 50.0 °F 46.4 °F 87% 30.05 in 10.0 mi ESE 17.3 mph 26.5 mph N/A   Overcast
11:16 AM 51.8 °F 46.4 °F 82% 30.04 in 10.0 mi ESE 16.1 mph 27.6 mph N/A   Overcast
11:36 AM 51.8 °F 46.4 °F 82% 30.04 in 10.0 mi ESE 15.0 mph 29.9 mph N/A   Overcast
11:55 AM 51.8 °F 46.4 °F 82% 30.04 in 10.0 mi ESE 20.7 mph 26.5 mph N/A   Overcast
11:56 AM 51.8 °F 46.4 °F 82% 30.04 in 10.0 mi ESE 20.7 mph 26.5 mph N/A   Overcast
12:15 PM 51.8 °F 46.4 °F 82% 30.04 in 10.0 mi ESE 18.4 mph 26.5 mph N/A   Overcast
12:20 PM 51.8 °F 46.4 °F 82% 30.03 in 10.0 mi ESE 20.7 mph 28.8 mph N/A   Overcast
12:37 PM 51.8 °F 46.4 °F 82% 30.03 in 10.0 mi ESE 23.0 mph 27.6 mph N/A   Overcast
12:55 PM 51.8 °F 46.4 °F 82% 30.03 in 10.0 mi SE 12.7 mph 26.5 mph N/A   Overcast
1:15 PM 51.8 °F 46.4 °F 82% 30.02 in 10.0 mi ESE 18.4 mph 23.0 mph N/A   Overcast
1:16 PM 51.8 °F 46.4 °F 82% 30.02 in 10.0 mi ESE 19.6 mph 23.0 mph N/A   Overcast
1:35 PM 51.8 °F 48.2 °F 88% 30.01 in 10.0 mi ESE 16.1 mph 23.0 mph N/A   Overcast
1:58 PM 51.8 °F 48.2 °F 88% 30.00 in 10.0 mi SE 20.7 mph 26.5 mph N/A   Overcast
2:17 PM 51.8 °F 48.2 °F 88% 29.99 in 10.0 mi ESE 18.4 mph 27.6 mph N/A   Overcast
2:35 PM 53.6 °F 48.2 °F 82% 29.97 in 10.0 mi ESE 16.1 mph 23.0 mph N/A   Overcast
2:55 PM 51.8 °F 48.2 °F 88% 29.96 in 5.0 mi ESE 19.6 mph 26.5 mph N/A   Overcast
2:56 PM 51.8 °F 48.2 °F 88% 29.96 in 5.0 mi ESE 20.7 mph 26.5 mph N/A   Overcast
3:15 PM 51.8 °F 50.0 °F 94% 29.94 in 5.0 mi ESE 18.4 mph 24.2 mph N/A Rain Light Rain
3:19 PM 51.8 °F 50.0 °F 94% 29.94 in 7.0 mi ESE 18.4 mph 28.8 mph N/A   Overcast
3:38 PM 53.6 °F 50.0 °F 88% 29.92 in 10.0 mi ESE 16.1 mph 26.5 mph N/A   Overcast
3:56 PM 53.6 °F 50.0 °F 88% 29.91 in 10.0 mi ESE 19.6 mph 28.8 mph N/A   Mostly Cloudy
4:15 PM 53.6 °F 50.0 °F 88% 29.90 in 10.0 mi ESE 20.7 mph 27.6 mph N/A   Overcast
4:16 PM 53.6 °F 50.0 °F 88% 29.90 in 10.0 mi ESE 20.7 mph 27.6 mph N/A   Overcast
4:35 PM 55.4 °F 50.0 °F 82% 29.88 in 10.0 mi ESE 19.6 mph 28.8 mph N/A   Overcast
4:36 PM 55.4 °F 50.0 °F 82% 29.88 in 10.0 mi ESE 19.6 mph 28.8 mph N/A   Overcast
4:59 PM 55.4 °F 50.0 °F 82% 29.88 in 10.0 mi ESE 21.9 mph 29.9 mph N/A   Overcast
5:17 PM 55.4 °F 50.0 °F 82% 29.90 in 10.0 mi SE 23.0 mph 29.9 mph N/A   Overcast
5:36 PM 55.4 °F 51.8 °F 88% 29.90 in 10.0 mi SE 18.4 mph 28.8 mph N/A   Overcast
5:55 PM 53.6 °F 51.8 °F 94% 29.89 in 7.0 mi SE 19.6 mph 27.6 mph N/A Thunderstorm Overcast
5:56 PM 53.6 °F 51.8 °F 94% 29.89 in 5.0 mi SE 21.9 mph 27.6 mph N/A Thunderstorm Overcast
6:15 PM 53.6 °F 51.8 °F 94% 29.89 in 5.0 mi SE 17.3 mph 26.5 mph N/A Thunderstorm Overcast
6:20 PM 53.6 °F 51.8 °F 94% 29.88 in 7.0 mi SE 18.4 mph 24.2 mph N/A Thunderstorm Overcast
6:38 PM 53.6 °F 51.8 °F 94% 29.87 in 10.0 mi ESE 17.3 mph 25.3 mph N/A   Overcast
6:55 PM 55.4 °F 51.8 °F 88% 29.86 in 10.0 mi ESE 21.9 mph 28.8 mph N/A Thunderstorm Overcast
7:15 PM 55.4 °F 51.8 °F 88% 29.86 in 10.0 mi ESE 20.7 mph 26.5 mph N/A   Overcast
7:16 PM 55.4 °F 51.8 °F 88% 29.86 in 10.0 mi ESE 18.4 mph 26.5 mph N/A   Overcast
7:35 PM 55.4 °F 51.8 °F 88% 29.86 in 10.0 mi ESE 17.3 mph 25.3 mph N/A   Overcast
7:58 PM 55.4 °F 51.8 °F 88% 29.88 in 10.0 mi SE 15.0 mph 26.5 mph N/A   Overcast
8:16 PM 55.4 °F 51.8 °F 88% 29.88 in 7.0 mi SE 15.0 mph 23.0 mph N/A Thunderstorm Overcast
8:35 PM 55.4 °F 53.6 °F 94% 29.87 in 7.0 mi SE 18.4 mph 23.0 mph N/A   Overcast
8:36 PM 55.4 °F 53.6 °F 94% 29.87 in 7.0 mi ESE 19.6 mph 23.0 mph N/A   Overcast
8:55 PM 55.4 °F 53.6 °F 94% 29.85 in 5.0 mi SE 19.6 mph 24.2 mph N/A   Overcast
9:15 PM 55.4 °F 53.6 °F 94% 29.85 in 7.0 mi SE 18.4 mph 26.5 mph N/A   Overcast
9:19 PM 55.4 °F 53.6 °F 94% 29.85 in 7.0 mi SE 16.1 mph 26.5 mph N/A   Overcast
9:37 PM 55.4 °F 53.6 °F 94% 29.84 in 7.0 mi SE 18.4 mph 25.3 mph N/A   Overcast
9:56 PM 55.4 °F 53.6 °F 94% 29.83 in 10.0 mi SE 13.8 mph 25.3 mph N/A   Overcast
10:15 PM 55.4 °F 53.6 °F 94% 29.83 in 10.0 mi SE 15.0 mph 25.3 mph N/A Thunderstorm Overcast
10:16 PM 55.4 °F 53.6 °F 94% 29.83 in 10.0 mi SE 13.8 mph 25.3 mph N/A Thunderstorm Overcast
10:35 PM 55.4 °F 53.6 °F 94% 29.83 in 10.0 mi SE 13.8 mph 20.7 mph N/A Thunderstorm Overcast
10:36 PM 55.4 °F 53.6 °F 94% 29.83 in 10.0 mi SE 13.8 mph 20.7 mph N/A Thunderstorm Overcast
10:59 PM 55.4 °F 53.6 °F 94% 29.81 in 10.0 mi SE 13.8 mph 20.7 mph N/A Thunderstorm Overcast
11:16 PM 57.2 °F 53.6 °F 88% 29.81 in 10.0 mi SE 13.8 mph 20.7 mph N/A   Overcast
11:36 PM 57.2 °F 53.6 °F 88% 29.81 in 10.0 mi SE 16.1 mph 21.9 mph N/A   Overcast
11:55 PM 57.2 °F 55.4 °F 94% 29.80 in 10.0 mi SE 15.0 mph 18.4 mph N/A   Overcast